Simultaneous Nadir Overpasses (SNOs) Predictions

Prediction of SNOs between NOAA-19 and TERRA Satellite Orbit:

Table of predicted SNOs for the next 14.0 days since TLE Epoch: 4/15/2014
Index Date (NOAA-19) Time (NOAA-19) Lat,Lon (NOAA-19) SZA (NOAA-19 ) Date (TERRA) Time (TERRA) Lat,Lon (TERRA) SZA (TERRA ) Distance(km) Time Diff (sec)
1 04/16/2014 00:14:46 -70.44, -2.64 119.69 04/16/2014 00:15:45 -70.44, -2.57 119.68 2.44 59
2 04/16/2014 01:05:43 70.31, 164.82 60.17 04/16/2014 01:05:13 70.29, 164.85 60.15 2.10 30
3 04/18/2014 04:58:46 -70.69, -74.02 120.21 04/18/2014 04:59:58 -70.58, -73.43 120.32 24.92 72
4 04/18/2014 05:49:39 70.33, 93.82 59.43 04/18/2014 05:49:28 70.31, 93.82 59.41 2.06 11
5 04/20/2014 09:42:54 -71.37,-146.15 120.29 04/20/2014 09:44:00 -71.28,-143.39 120.35 98.59 66
6 04/20/2014 10:33:34 70.37, 22.81 58.70 04/20/2014 10:33:41 70.37, 22.84 58.70 1.11 7
7 04/20/2014 11:24:28 -69.88,-169.18 121.79 04/20/2014 11:23:17 -69.92,-170.16 121.76 37.89 71
8 04/22/2014 15:17:30 70.41, -48.22 58.00 04/22/2014 15:17:55 70.39, -48.18 57.98 2.58 25
9 04/22/2014 16:08:30 -70.26, 119.27 122.16 04/22/2014 16:07:25 -70.28, 119.29 122.15 2.25 65
10 04/24/2014 20:01:25 70.41,-119.17 57.28 04/24/2014 20:02:08 70.44,-119.16 57.31 3.48 43
11 04/24/2014 20:52:25 -70.29, 48.27 122.86 04/24/2014 20:51:39 -70.28, 48.23 122.87 1.80 46
12 04/27/2014 00:45:21 70.47, 169.77 56.63 04/27/2014 00:46:21 70.47, 169.82 56.62 1.75 60
13 04/27/2014 01:36:20 -70.32, -22.74
